Location: Roanoke
(37.2710°N, 79.9420°W)
Time: 02:25:01
(UTC-05:00)

Courier 1B Rocket - Pass Details

Date: 24 November 2019
Orbit: 920 x 1202 km, 28.2° (Epoch: 13 December)

Event Time Altitude Azimuth Distance (km) Brightness Sun altitude
Rises 13:26:15 0° 239° (WSW) 3,616 8.7 29.2°
Reaches altitude 10° 13:29:04 10° 229° (SW) 2,704 8.5 28.9°
Maximum altitude 13:34:50 33° 168° (SSE) 1,619 7.4 28.5°
Drops below altitude 10° 13:40:59 10° 106° (ESE) 2,883 7.5 28.0°
Sets 13:44:05 0° 98° (E) 3,888 8.0 27.7°
